Location: Ch�tillon
(48.8024°N, 2.2935°E)
Time: 02:58:58
(UTC+00:00)

Cosmos 2263 Rocket - Pass Details

Date: 16 October 2021
Orbit: 825 x 847 km, 71.0° (Epoch: 29 November)

Event Time Altitude Azimuth Distance (km) Brightness Sun altitude
Rises 19:01:37 0° 330° (NNW) 3,377 5.9 -20.9°
Reaches altitude 10° 19:04:04 10° 328° (NNW) 2,438 5.1 -21.3°
Maximum altitude 19:09:37 70° 246° (WSW) 877 2.3 -22.2°
Enters shadow 19:13:10 23° 167° (SSE) 1,697 3.5 -22.8°
